Location: Newark
(25.6108°S, 54.5803°W)
Time: 13:00:49
(UTC+00:00)

SR - All Passes

Search period start: 31 October 2020 00:00
Search period end: 10 November 2020 00:00
Orbit: 581 x 874 km, 66.7° (Epoch: 30 October)

Date Brightness Start Highest point End Pass type
(mag) Time Alt. Az. Time Alt. Az. Time Alt. Az.
31 Oct - 01:23:20 10° SE 01:23:58 10° SE 01:24:36 10° ESE visible
31 Oct - 03:01:44 10° SSW 03:06:29 59° WNW 03:10:49 10° N visible
31 Oct - 15:39:58 10° N 15:45:29 44° ENE 15:51:05 10° SE daylight
31 Oct - 17:23:19 10° WNW 17:27:43 21° WSW 17:32:07 10° S daylight
01 Nov - 02:12:04 10° SSW 02:16:48 52° ESE 02:21:09 10° NE visible
01 Nov - 14:51:51 10° NNE 14:56:01 20° ENE 15:00:14 10° ESE daylight
01 Nov - 16:32:12 10° NW 16:37:46 43° WSW 16:43:22 10° S daylight
02 Nov - 01:23:09 10° S 01:26:54 22° ESE 01:30:25 10° ENE visible
02 Nov - 03:05:00 10° SW 03:08:48 24° WNW 03:12:23 10° NNW night (unlit)
02 Nov - 15:42:07 10° NNW 15:47:59 89° ENE 15:53:56 10° SSE daylight
02 Nov - 17:29:23 10° WSW 17:30:42 11° SW 17:32:00 10° SW daylight
03 Nov - 02:14:34 10° SSW 02:19:20 65° WNW 02:23:41 10° NNE visible
03 Nov - 14:52:57 10° N 14:58:23 41° ENE 15:03:54 10° SE daylight
03 Nov - 16:36:00 10° WNW 16:40:33 23° WSW 16:45:06 10° S daylight
04 Nov - 01:24:58 10° S 01:29:38 47° ESE 01:33:55 10° NE visible
04 Nov - 14:04:57 10° NNE 14:08:55 19° ENE 14:12:55 10° ESE daylight
04 Nov - 15:45:00 10° NW 15:50:37 47° WSW 15:56:17 10° S daylight
05 Nov - 00:36:10 10° S 00:39:42 20° ESE 00:43:03 10° ENE visible
05 Nov - 02:17:45 10° SW 02:21:40 26° WNW 02:25:21 10° NNW visible
05 Nov - 14:55:00 10° NNW 15:00:53 83° ENE 15:06:48 10° SSE daylight
05 Nov - 16:41:34 10° WSW 16:43:31 12° SW 16:45:27 10° SW daylight
06 Nov - 01:27:25 10° SSW 01:32:10 71° WNW 01:36:33 10° NNE visible
06 Nov - 14:05:55 10° N 14:11:17 38° ENE 14:16:41 10° SE daylight
06 Nov - 15:48:42 10° WNW 15:53:24 24° WSW 15:58:06 10° S daylight
07 Nov - 00:37:54 10° S 00:42:28 43° ESE 00:46:41 10° NE visible
07 Nov - 02:22:44 10° W 02:23:52 11° WNW 02:25:00 10° WNW visible
07 Nov - 13:18:06 10° NE 13:21:49 17° ENE 13:25:34 10° ESE daylight
07 Nov - 14:57:47 10° NW 15:03:30 50° WSW 15:09:11 10° S daylight
07 Nov - 23:49:12 10° SSE 23:52:31 18° ESE 23:55:40 10° ENE visible
08 Nov - 01:30:30 10° SW 01:34:32 29° WNW 01:38:19 10° NNW visible
08 Nov - 14:07:53 10° NNW 14:13:45 78° ENE 14:19:38 10° SSE daylight
08 Nov - 15:53:56 10° W 15:56:20 12° SW 15:58:44 10° SSW daylight
09 Nov - 00:40:17 10° SSW 00:45:01 79° WNW 00:49:24 10° NNE visible
09 Nov - 13:18:54 10° N 13:24:10 36° ENE 13:29:29 10° SE daylight
09 Nov - 15:01:24 10° WNW 15:06:15 26° WSW 15:11:04 10° S daylight
09 Nov - 23:50:49 10° S 23:55:18 39° ESE 23:59:26 10° NE visible
